ROMMA est une association bénévole à but non lucratif. Votre soutien est indispensable : ADHERER à ROMMA ou FAIRE un DON

Chambon - (38, Isère)

Oisans (2460 m)   Longitude: 06° 10' 42" E   Latitude: 45° 01' 32" N Station partenaire n°803
 

Détail journalier du     <<     >>

Température Humidité Vent Dir Rafale Dir. rafale Neige 1 Neige 2
Heure (°C) (%) (km/h) (km/h) (cm) (cm)
01:00 1.79016SO24SO04
02:00 2.37816SSO28SSO04
03:00 2.27820SSO32SSO04
04:00 2.77720SSO34SSO04
05:00 2.67715SSO32SSO03
06:00 1.88810SSO26SSO04
07:00 0.49612SSO20SSO04
08:00 0.6968SO17SO05
09:00 0.4975SSO13SO04
10:00 0.6983SSO8SSO04
11:00 0.7992NE7NE04
12:00 1.0994NNE8NE04
13:00 1.2993NNE7NNE03
14:00 1.1993NNE7NNE03
15:00 1.31003NNE7NNE04
16:00 1.21003NNE7NNE04
17:00 0.51002NE8OSO03
18:00 0.01003SSO8OSO05
19:00 -0.11001N3N06
20:00 0.010000---05
21:00 0.210000---05
22:00 0.51002NE12NE04
23:00 0.810010NE21NE04
minuit 0.21005NNE15NNE04

Graphique du 31-10-2019

 

Serveur OMMA